Location: Gwatt
(46.7204°N, 7.6223°E)
Time: 15:53:59
(UTC+00:00)

Cosmos 2142 Rocket - Pass Details

Date: 18 September 2020
Orbit: 952 x 1005 km, 82.9° (Epoch: 29 October)

Event Time Altitude Azimuth Distance (km) Brightness Sun altitude
Exits shadow 20:21:19 72° 102° (ESE) 1,036 4.3 -27.5°
Maximum altitude 20:21:24 72° 95° (E) 1,036 4.4 -27.5°
Drops below altitude 10° 20:27:38 10° 12° (NNE) 2,731 7.1 -28.4°
Sets 20:30:08 0° 11° (N) 3,675 7.9 -28.7°
